Wind_Speed
16 18 24 22 19 16 31 37 8 36 63 15 14 16 25 19 23 29 12 9 13 3 14 11 10 9 5 12 12 6 1 2 3 6 7 4 4 5 4 4 1 1 3 2
10 13 8 2 13 31 37 30 7 54 69 15 12 7 15 20 20 15 12 8 10 18 7 5 7 6 4 18 6 4 5 2 2 3 4 3 2 5 5 4 3 4 3 3
9 4 1 2 6 16 18 9 5 14 36 19 17 17 14 17 23 18 18 13 5 6 5 2 6 5 2 14 8 6 2 1 5 6 4 3 5 6 6 4 2 2 3 4
13 6 2 4 3 17 3 1 4 11 12 5 15 20 15 21 11 13 20 3 6 5 5 7 6 6 7 6 5 4 2 2 3 3 7 4 3 6 7 3 3 2 4 5
15 13 12 2 2 6 5 2 6 11 20 9 13 17 14 22 19 12 16 8 11 10 6 14 15 11 5 5 3 5 2 2 3 6 4 9 4 4 10 6 4 6 5 3
10 18 17 9 3 7 1 3 6 15 18 10 10 14 12 18 13 10 20 11 9 14 10 8 10 14 18 8 8 7 6 3 2 3 11 6 2 4 4 7 5 2 3 3
7 12 16 7 9 8 9 4 9 4 6 10 10 16 12 13 6 4 5 6 5 8 20 24 24 17 9 14 11 10 6 4 2 4 6 3 3 1 6 9 4 3 5 1
5 10 10 11 9 9 9 14 5 2 5 12 12 15 9 12 9 5 2 1 16 21 18 8 6 3 2 6 11 8 3 4 2 3 1 3 6 6 6 5 5 6 5 2
8 8 3 7 8 10 9 9 4 3 4 10 11 14 21 9 8 5 7 23 28 15 4 3 4 4 5 5 5 5 2 3 3 1 3 5 1 10 14 9 2 7 6 5
7 7 6 3 8 8 6 5 14 4 4 16 22 8 20 15 9 4 5 6 5 7 3 2 4 5 9 7 8 6 4 2 3 2 1 2 6 12 15 4 5 14 13 9
6 5 9 8 11 8 6 2 13 11 7 16 21 20 21 9 18 5 13 6 1 3 3 5 4 3 6 4 6 7 4 4 3 3 2 4 14 11 5 8 16 15 11 7
9 8 15 8 13 9 9 5 12 13 12 20 19 16 14 15 27 21 19 10 8 9 3 2 1 1 3 5 3 5 3 4 4 2 3 9 16 16 24 20 19 15 13 9
10 7 9 12 6 4 8 9 24 34 31 24 22 15 15 14 24 19 11 9 9 5 3 1 1 2 3 3 2 4 3 7 5 5 7 14 17 17 19 15 15 13 11 10
11 9 9 8 5 5 8 12 10 7 10 5 11 15 15 14 20 19 10 19 10 9 4 2 2 2 4 2 4 4 4 5 6 6 15 20 17 16 16 17 16 14 13 12
11 12 13 17 6 5 10 10 14 8 11 6 19 23 16 13 15 15 12 12 9 5 3 3 1 2 4 3 4 2 2 6 4 4 21 10 20 16 14 15 14 12 11 10
11 15 20 7 7 7 8 6 17 28 30 10 4 11 16 16 17 16 13 11 8 4 4 2 3 3 3 3 3 5 16 14 13 8 23 19 22 19 16 14 14 13 13 10
12 17 9 8 8 6 3 6 12 17 14 7 4 3 5 9 14 14 11 10 10 8 4 2 3 3 4 2 3 12 19 20 25 26 27 24 23 23 18 16 17 15 13 12
15 14 10 11 9 10 15 13 11 12 10 7 3 2 3 6 6 4 5 4 6 7 3 3 3 2 3 3 17 22 22 23 23 18 8 22 23 20 17 16 15 11 12 13
13 14 12 13 11 8 11 12 13 12 8 5 4 4 3 6 6 5 5 5 3 5 2 2 1 0 1 12 22 23 27 17 21 13 18 21 22 22 20 19 16 16 13 10
13 13 4 4 7 17 13 4 3 6 5 6 3 5 2 10 5 3 3 3 2 1 2 2 2 1 2 19 24 26 22 20 23 24 21 22 23 23 21 20 17 15 12 13
13 3 4 17 14 5 4 3 3 2 3 4 4 15 7 6 4 2 3 2 0 2 3 3 1 2 5 21 25 24 20 19 22 14 18 18 20 21 20 18 16 15 16 17
6 10 15 9 3 4 4 1 3 3 3 2 7 11 7 6 4 4 2 2 2 1 1 3 2 3 18 26 25 24 21 20 20 13 15 15 15 18 20 20 19 19 16 15
11 6 4 2 4 4 4 3 1 2 2 3 8 3 5 4 4 4 3 3 3 9 2 3 3 12 19 27 26 24 22 22 20 17 18 19 19 19 20 19 18 16 15 13
5 4 4 2 3 3 3 3 2 4 5 18 16 5 3 3 3 2 4 3 2 1 1 4 3 18 23 26 24 25 22 22 20 17 19 20 21 20 18 15 14 14 14 14
5 5 3 3 4 6 6 5 5 7 8 14 8 5 4 1 3 1 3 3 2 3 3 0 14 21 23 23 22 23 22 21 20 20 20 19 19 18 17 17 16 15 15 15
5 6 4 6 8 3 6 6 5 5 7 7 3 2 3 1 3 2 4 4 3 1 2 8 15 19 19 20 21 21 21 21 21 21 19 19 18 17 18 18 18 17 16 16
4 4 10 8 11 6 6 5 4 6 4 2 2 3 3 3 2 1 1 2 1 13 12 8 10 15 16 17 16 17 19 19 21 20 20 19 19 19 20 21 19 18 18 16
Wind_Direction
310 312 313 316 268 238 188 184 191 182 176 166 197 205 205 219 215 243 234 197 267 308 202 198 183 206 209 126 119 138 140 186 185 198 209 194 60 133 113 117 267 168 181 208
289 290 290 187 99 153 162 161 118 168 170 183 194 176 201 223 224 223 207 238 215 218 245 168 160 164 232 134 122 129 181 255 112 157 89 98 188 132 140 132 123 219 132 229
242 244 273 341 37 148 132 129 143 154 190 206 180 182 192 204 223 237 214 211 199 167 189 21 153 134 291 129 101 93 51 271 160 186 180 149 144 146 91 107 136 218 197 167
225 265 31 332 265 153 30 76 117 160 189 203 185 178 172 194 194 220 204 204 175 149 155 176 198 174 121 96 106 92 86 228 206 216 158 122 133 167 115 135 147 167 162 144
217 240 248 352 156 182 24 15 135 184 160 146 177 180 195 189 204 179 185 165 204 185 189 192 178 146 147 164 146 160 223 257 240 199 152 128 147 178 149 139 136 125 162 145
230 230 252 277 314 283 61 121 188 156 169 164 176 193 183 197 196 208 186 176 161 204 196 174 157 154 149 161 152 188 164 178 135 242 136 111 17 210 105 104 76 64 227 120
250 249 241 211 101 97 147 146 146 130 172 176 189 171 202 189 154 105 100 100 112 129 122 106 123 126 168 144 172 188 167 187 135 139 143 193 244 47 114 121 124 41 89 122
247 175 168 141 102 112 153 161 122 98 157 170 184 173 148 128 98 113 75 129 138 145 122 102 76 70 36 193 194 220 186 151 133 166 127 129 166 166 148 141 188 179 177 158
207 194 186 102 123 78 132 165 114 126 127 190 181 157 159 150 170 91 127 143 147 137 93 90 125 172 176 192 182 186 208 74 134 192 184 204 316 143 167 106 173 154 115 94
180 212 241 139 136 108 84 164 175 139 116 160 159 179 171 170 98 106 122 126 119 141 78 89 167 198 177 163 172 175 163 101 167 299 131 61 124 118 117 128 198 107 115 98
189 203 223 164 122 108 55 190 184 165 127 146 161 149 170 151 149 146 164 96 351 64 131 188 230 189 202 118 150 156 147 141 181 196 142 181 126 130 167 144 119 125 116 126
183 194 205 184 121 57 351 305 125 165 109 116 146 126 164 164 175 145 169 158 154 164 159 223 197 0 91 124 153 139 154 187 144 99 138 84 75 107 130 135 130 130 130 144
176 173 189 204 67 63 353 106 122 115 95 82 99 91 109 160 172 187 149 153 171 152 152 134 180 87 106 142 166 98 68 105 109 103 119 104 104 110 127 132 136 137 139 135
170 182 175 164 130 59 56 117 142 126 108 93 75 86 88 106 150 158 149 156 131 123 83 101 131 112 41 52 124 110 171 97 121 82 129 119 127 128 137 131 135 133 134 129
179 181 150 143 114 99 85 108 129 83 103 112 104 84 83 98 146 143 135 164 158 116 65 47 62 48 51 52 78 28 114 156 140 198 159 138 150 156 154 146 139 139 140 142
169 156 144 153 141 146 85 100 96 110 117 108 66 75 76 86 96 101 109 125 128 110 86 78 73 53 90 93 92 85 93 118 136 135 161 149 149 155 156 151 153 157 149 152
147 122 122 146 126 118 98 120 112 110 108 90 82 57 70 86 90 91 80 88 85 89 97 89 104 62 29 77 117 120 107 116 125 137 134 129 151 154 155 160 156 162 160 146
123 120 122 114 110 112 116 103 111 123 101 86 93 90 69 94 95 47 79 64 54 40 35 70 95 62 38 72 127 127 130 133 132 139 149 159 161 155 159 171 172 160 154 160
132 134 134 112 111 109 124 104 89 84 68 104 112 135 164 144 111 101 51 49 42 10 32 45 90 145 201 157 145 143 148 146 149 146 150 159 163 161 167 165 166 166 164 167
142 140 101 88 112 116 115 84 38 38 37 54 75 105 130 138 123 87 82 30 164 78 249 66 70 248 152 157 162 163 160 158 159 153 152 161 164 170 172 176 175 187 179 172
149 122 86 121 128 98 75 56 66 105 36 76 93 125 117 121 104 155 106 183 228 122 243 124 223 270 206 157 157 169 168 170 179 182 172 178 176 173 171 171 177 185 182 190
146 125 122 116 82 69 78 37 345 48 147 82 121 110 88 87 102 99 134 116 38 182 110 82 249 249 164 154 156 164 166 164 173 180 176 181 177 175 177 182 185 196 204 204
117 97 70 33 27 56 122 166 74 76 102 131 138 91 111 101 89 65 72 89 223 128 73 211 236 158 156 155 156 154 160 164 168 167 177 179 180 184 192 195 201 206 203 202
71 65 44 82 3 51 27 22 73 76 145 133 124 88 101 100 63 145 96 244 106 56 108 233 197 162 158 163 167 168 168 176 181 184 188 192 194 195 205 210 209 208 206 204
61 38 56 69 97 70 51 51 89 94 127 138 106 79 97 88 95 117 106 32 191 210 219 132 157 163 167 172 178 178 181 190 194 199 202 204 206 208 208 209 212 214 213 213
58 47 58 114 90 67 72 64 78 92 107 130 86 106 81 207 136 112 202 175 205 266 95 133 157 168 179 183 188 190 193 198 204 210 214 214 212 215 217 216 219 221 219 220
57 44 38 80 81 78 69 88 84 98 73 41 17 87 195 120 101 195 177 85 120 110 105 135 171 182 190 198 200 201 207 210 213 216 220 223 221 219 221 224 223 222 220 222
Height
1411 1410 1403 1393 1389 1393 1399 1409 1416 1421 1432 1451 1452 1447 1439 1451 1454 1455 1453 1455 1458 1451 1458 1459 1466 1468 1468 1461 1468 1477 1481 1485 1492 1484 1480 1482 1484 1488 1495 1521 1509 1515 1519 1534
1407 1405 1399 1395 1388 1383 1386 1397 1410 1417 1420 1427 1436 1441 1443 1446 1448 1447 1449 1450 1449 1456 1455 1461 1460 1464 1467 1467 1471 1477 1481 1489 1501 1490 1485 1482 1486 1491 1494 1500 1505 1513 1533 1536
1404 1401 1400 1397 1394 1387 1389 1393 1405 1413 1418 1417 1424 1433 1436 1440 1442 1442 1442 1444 1445 1448 1454 1455 1459 1468 1474 1468 1473 1478 1479 1482 1489 1509 1494 1489 1493 1489 1493 1499 1516 1523 1529 1530
1401 1399 1398 1397 1394 1392 1393 1389 1388 1395 1404 1414 1415 1422 1427 1434 1435 1436 1437 1441 1441 1447 1453 1459 1463 1466 1472 1474 1476 1478 1481 1485 1478 1477 1480 1486 1488 1489 1498 1500 1504 1509 1518 1523
1398 1398 1397 1397 1395 1394 1394 1393 1393 1400 1402 1414 1415 1417 1421 1424 1429 1428 1429 1435 1440 1445 1450 1455 1455 1461 1468 1474 1479 1480 1481 1485 1479 1482 1478 1487 1492 1490 1495 1500 1503 1509 1515 1519
1395 1395 1396 1395 1395 1394 1394 1394 1395 1399 1405 1410 1415 1412 1415 1419 1422 1424 1425 1432 1439 1443 1443 1446 1448 1455 1464 1469 1475 1480 1483 1487 1486 1486 1482 1492 1505 1498 1498 1504 1508 1510 1514 1521
1392 1392 1393 1394 1393 1393 1395 1395 1396 1396 1404 1404 1409 1412 1415 1416 1418 1422 1424 1429 1435 1440 1441 1446 1454 1459 1463 1467 1471 1473 1478 1481 1482 1491 1487 1499 1502 1498 1497 1507 1512 1515 1517 1520
1389 1390 1392 1391 1391 1392 1393 1395 1394 1396 1399 1402 1409 1408 1412 1417 1421 1426 1428 1431 1437 1440 1443 1453 1463 1469 1472 1470 1471 1472 1471 1475 1486 1488 1489 1499 1496 1496 1501 1503 1514 1514 1515 1516
1388 1389 1390 1391 1391 1391 1393 1394 1393 1396 1396 1399 1404 1407 1413 1421 1428 1432 1437 1438 1439 1442 1447 1457 1464 1475 1472 1473 1469 1468 1469 1472 1483 1482 1482 1491 1490 1489 1494 1497 1514 1510 1512 1515
1388 1389 1390 1391 1391 1390 1391 1392 1394 1397 1398 1400 1405 1408 1412 1417 1424 1433 1436 1437 1442 1444 1451 1459 1465 1463 1458 1466 1469 1472 1476 1482 1484 1486 1488 1491 1487 1492 1495 1508 1515 1509 1512 1515
1388 1390 1390 1392 1391 1391 1391 1392 1393 1395 1397 1402 1408 1412 1416 1418 1423 1429 1434 1440 1444 1448 1456 1459 1453 1452 1452 1455 1460 1467 1474 1482 1488 1486 1486 1495 1488 1493 1499 1505 1506 1509 1512 1517
1388 1390 1391 1391 1391 1392 1393 1389 1391 1393 1399 1406 1410 1413 1417 1420 1421 1426 1434 1436 1439 1443 1451 1449 1446 1450 1450 1455 1468 1461 1477 1469 1482 1488 1494 1493 1491 1493 1498 1502 1505 1509 1512 1516
1389 1390 1392 1392 1392 1394 1393 1391 1395 1397 1402 1410 1413 1418 1419 1419 1422 1426 1430 1435 1438 1440 1442 1443 1445 1445 1449 1458 1460 1464 1466 1467 1480 1482 1494 1494 1498 1500 1502 1504 1507 1510 1513 1515
1389 1392 1392 1394 1396 1395 1393 1394 1397 1400 1403 1411 1420 1419 1418 1422 1423 1427 1429 1433 1437 1439 1441 1442 1446 1449 1445 1452 1454 1462 1464 1469 1479 1486 1492 1496 1501 1502 1504 1506 1508 1510 1513 1515
1389 1391 1393 1396 1396 1396 1396 1398 1399 1401 1404 1414 1423 1426 1428 1427 1427 1429 1432 1435 1438 1440 1442 1444 1450 1446 1448 1451 1455 1466 1462 1471 1479 1486 1484 1487 1496 1502 1505 1507 1509 1512 1513 1515
1389 1391 1393 1397 1398 1400 1400 1400 1404 1404 1409 1412 1426 1432 1432 1431 1430 1432 1435 1437 1440 1442 1443 1447 1449 1450 1451 1461 1468 1469 1466 1467 1469 1475 1481 1486 1494 1501 1505 1508 1510 1512 1513 1514
1391 1393 1396 1398 1400 1402 1403 1405 1408 1408 1410 1414 1426 1434 1435 1436 1436 1438 1439 1439 1441 1443 1446 1448 1450 1451 1452 1457 1467 1469 1469 1470 1472 1476 1481 1491 1495 1499 1504 1507 1509 1510 1512 1514
1395 1397 1399 1401 1402 1404 1407 1408 1409 1410 1412 1417 1430 1438 1439 1439 1441 1443 1443 1444 1445 1447 1449 1449 1452 1454 1454 1463 1464 1467 1470 1473 1477 1481 1484 1487 1494 1499 1503 1506 1507 1509 1512 1513
1399 1401 1402 1403 1405 1407 1409 1410 1412 1412 1417 1419 1427 1435 1444 1441 1443 1446 1447 1448 1453 1452 1452 1452 1454 1457 1461 1459 1462 1466 1469 1472 1477 1482 1485 1489 1492 1497 1501 1504 1506 1508 1510 1511
1401 1403 1404 1406 1408 1411 1413 1416 1415 1416 1419 1420 1426 1430 1437 1440 1442 1448 1451 1451 1455 1460 1456 1454 1458 1459 1455 1456 1459 1463 1468 1472 1476 1480 1485 1488 1492 1495 1499 1502 1505 1506 1508 1510
1403 1404 1406 1410 1412 1414 1416 1419 1420 1422 1424 1427 1430 1431 1434 1440 1445 1449 1450 1454 1454 1460 1458 1459 1461 1460 1454 1457 1459 1463 1467 1471 1476 1480 1483 1486 1489 1492 1497 1500 1503 1504 1506 1507
1405 1406 1409 1413 1415 1417 1419 1424 1423 1422 1429 1429 1432 1435 1437 1440 1443 1447 1450 1453 1455 1454 1453 1460 1460 1451 1451 1455 1459 1463 1467 1471 1475 1479 1482 1486 1489 1492 1496 1498 1500 1501 1503 1505
1407 1408 1412 1414 1418 1423 1423 1429 1426 1429 1427 1430 1432 1436 1439 1443 1445 1448 1450 1456 1459 1452 1461 1460 1452 1449 1452 1455 1459 1464 1468 1472 1475 1479 1482 1485 1488 1490 1493 1495 1497 1499 1501 1503
1408 1412 1421 1421 1425 1425 1425 1424 1426 1428 1429 1430 1433 1435 1439 1443 1447 1449 1456 1453 1453 1460 1464 1452 1449 1450 1452 1455 1459 1463 1467 1471 1474 1477 1480 1483 1485 1487 1490 1492 1494 1496 1498 1500
1413 1416 1424 1427 1427 1427 1428 1428 1428 1429 1431 1433 1435 1438 1440 1445 1449 1447 1452 1458 1457 1454 1453 1447 1447 1450 1453 1456 1460 1463 1466 1469 1473 1476 1479 1482 1484 1485 1487 1490 1492 1494 1496 1497
1418 1423 1426 1428 1428 1430 1431 1431 1432 1432 1433 1434 1435 1438 1443 1446 1446 1448 1452 1450 1452 1452 1448 1449 1450 1452 1454 1457 1459 1462 1465 1469 1472 1475 1478 1480 1481 1483 1485 1487 1488 1490 1492 1494
1425 1429 1429 1430 1432 1434 1434 1434 1434 1435 1436 1437 1437 1440 1441 1442 1446 1446 1444 1450 1449 1448 1450 1450 1452 1453 1455 1457 1459 1461 1464 1467 1470 1473 1475 1477 1478 1479 1481 1482 1484 1486 1488 1490